| time (UTC) | temp F | wind direction | speed MPH | gust MPH | rain 1hr in | rain 24hr in | rain mn in | humidity % | barometer mb |
| 20260906231335 | 70 | 300 | 12.0 | 29.0 | 0.00 | 0.00 | 0.00 | 81 | 1023.9 |
| 20260906230837 | 70 | 351 | 13.0 | 29.0 | 0.00 | 0.00 | 0.00 | 81 | 1023.9 |
| 20260906230330 | 70 | 61 | 13.0 | 27.0 | 0.00 | 0.00 | 0.00 | 81 | 1023.9 |
| 20260906225826 | 70 | 360 | 13.0 | 27.0 | 0.00 | 0.00 | 0.00 | 81 | 1023.9 |
| 20260906225328 | 70 | 360 | 13.0 | 23.0 | 0.00 | 0.00 | 0.00 | 80 | 1024.0 |
| 20260906224823 | 70 | 360 | 13.0 | 25.0 | 0.00 | 0.00 | 0.00 | 79 | 1023.9 |
| 20260906224325 | 70 | 59 | 12.0 | 25.0 | 0.00 | 0.00 | 0.00 | 79 | 1024.1 |
| 20260906223821 | 71 | 68 | 12.0 | 20.0 | 0.00 | 0.00 | 0.00 | 78 | 1024.1 |
| 20260906223323 | 71 | 360 | 11.0 | 22.0 | 0.00 | 0.00 | 0.00 | 78 | 1024.1 |
| 20260906222818 | 71 | 30 | 12.0 | 22.0 | 0.00 | 0.00 | 0.00 | 77 | 1024.1 |
| 20260906222341 | 71 | 38 | 10.0 | 20.0 | 0.00 | 0.00 | 0.00 | 77 | 1024.1 |
| 20260906221822 | 71 | 58 | 11.0 | 21.0 | 0.00 | 0.00 | 0.00 | 75 | 1024.2 |
| 20260906221338 | 72 | 360 | 11.0 | 21.0 | 0.00 | 0.00 | 0.00 | 75 | 1024.0 |
| 20260906220839 | 72 | 319 | 11.0 | 18.0 | 0.00 | 0.00 | 0.00 | 73 | 1024.0 |
| 20260906220315 | 72 | 43 | 8.0 | 19.0 | 0.00 | 0.00 | 0.00 | 73 | 1024.0 |
| 20260906215817 | 72 | 42 | 10.0 | 20.0 | 0.00 | 0.00 | 0.00 | 72 | 1024.0 |
| 20260906215341 | 72 | 360 | 11.0 | 22.0 | 0.00 | 0.00 | 0.00 | 72 | 1024.0 |
| 20260906214836 | 72 | 19 | 11.0 | 22.0 | 0.00 | 0.00 | 0.00 | 72 | 1024.0 |
| 20260906214330 | 72 | 63 | 10.0 | 23.0 | 0.00 | 0.00 | 0.00 | 72 | 1024.0 |
| 20260906213834 | 72 | 53 | 10.0 | 21.0 | 0.00 | 0.00 | 0.00 | 71 | 1024.2 |
| 20260906213330 | 72 | 360 | 12.0 | 21.0 | 0.00 | 0.00 | 0.00 | 71 | 1024.1 |
| 20260906212830 | 73 | 360 | 9.0 | 20.0 | 0.00 | 0.00 | 0.00 | 71 | 1024.1 |
| 20260906212328 | 73 | 46 | 8.0 | 25.0 | 0.00 | 0.00 | 0.00 | 71 | 1024.0 |
| 20260906211855 | 73 | 50 | 9.0 | 18.0 | 0.00 | 0.00 | 0.00 | 70 | 1024.1 |
| 20260906211340 | 73 | 360 | 10.0 | 19.0 | 0.00 | 0.00 | 0.00 | 69 | 1024.1 |
| 20260906210825 | 73 | 329 | 9.0 | 20.0 | 0.00 | 0.00 | 0.00 | 69 | 1023.9 |
| 20260906210315 | 73 | 360 | 10.0 | 20.0 | 0.00 | 0.00 | 0.00 | 68 | 1023.8 |
| 20260906205835 | 74 | 47 | 7.0 | 21.0 | 0.00 | 0.00 | 0.00 | 67 | 1023.8 |
| 20260906205331 | 74 | 42 | 10.0 | 21.0 | 0.00 | 0.00 | 0.00 | 67 | 1023.8 |
| 20260906204828 | 74 | 360 | 11.0 | 22.0 | 0.00 | 0.00 | 0.00 | 66 | 1023.8 |
| 20260906204327 | 74 | 360 | 9.0 | 22.0 | 0.00 | 0.00 | 0.00 | 65 | 1023.7 |
| 20260906203830 | 75 | 54 | 10.0 | 19.0 | 0.00 | 0.00 | 0.00 | 64 | 1023.7 |
| 20260906203320 | 75 | 59 | 9.0 | 19.0 | 0.00 | 0.00 | 0.00 | 64 | 1023.7 |
| 20260906202814 | 75 | 360 | 11.0 | 20.0 | 0.00 | 0.00 | 0.00 | 64 | 1023.6 |
| 20260906202314 | 75 | 40 | 10.0 | 19.0 | 0.00 | 0.00 | 0.00 | 64 | 1023.5 |
| 20260906201835 | 75 | 72 | 8.0 | 21.0 | 0.00 | 0.00 | 0.00 | 63 | 1023.4 |
| 20260906201331 | 75 | 53 | 10.0 | 21.0 | 0.00 | 0.00 | 0.00 | 63 | 1023.4 |
| 20260906200829 | 75 | 337 | 8.0 | 20.0 | 0.00 | 0.00 | 0.00 | 63 | 1023.4 |
| 20260906200325 | 75 | 43 | 10.0 | 22.0 | 0.00 | 0.00 | 0.00 | 65 | 1023.3 |
| 20260906195827 | 76 | 360 | 11.0 | 22.0 | 0.00 | 0.00 | 0.00 | 66 | 1023.2 |
| 20260906195322 | 76 | 360 | 10.0 | 21.0 | 0.00 | 0.00 | 0.00 | 67 | 1023.1 |
| 20260906194825 | 76 | 22 | 10.0 | 21.0 | 0.00 | 0.00 | 0.00 | 67 | 1023.0 |
| 20260906194322 | 76 | 104 | 9.0 | 21.0 | 0.00 | 0.00 | 0.00 | 66 | 1022.9 |
| 20260906193822 | 76 | 18 | 11.0 | 22.0 | 0.00 | 0.00 | 0.00 | 66 | 1022.8 |
| 20260906193315 | 76 | 62 | 10.0 | 21.0 | 0.00 | 0.00 | 0.00 | 65 | 1022.8 |
| 20260906192817 | 77 | 326 | 9.0 | 21.0 | 0.00 | 0.00 | 0.00 | 65 | 1022.8 |
| 20260906192339 | 77 | 48 | 12.0 | 19.0 | 0.00 | 0.00 | 0.00 | 64 | 1022.8 |
| 20260906191816 | 77 | 47 | 9.0 | 19.0 | 0.00 | 0.00 | 0.00 | 64 | 1022.8 |
| 20260906191313 | 77 | 36 | 9.0 | 19.0 | 0.00 | 0.00 | 0.00 | 65 | 1022.7 |
| 20260906190815 | 77 | 336 | 9.0 | 17.0 | 0.00 | 0.00 | 0.00 | 65 | 1022.8 |
| 20260906190359 | 77 | 90 | 8.0 | 19.0 | 0.00 | 0.00 | 0.00 | 65 | 1022.6 |
| 20260906185813 | 77 | 55 | 10.0 | 19.0 | 0.00 | 0.00 | 0.00 | 65 | 1022.7 |
| 20260906185335 | 77 | 305 | 10.0 | 20.0 | 0.00 | 0.00 | 0.00 | 65 | 1022.8 |
| 20260906184841 | 78 | 322 | 10.0 | 20.0 | 0.00 | 0.00 | 0.00 | 66 | 1022.7 |
| 20260906184319 | 78 | 80 | 8.0 | 20.0 | 0.00 | 0.00 | 0.00 | 65 | 1022.7 |
| 20260906183832 | 78 | 355 | 11.0 | 20.0 | 0.00 | 0.00 | 0.00 | 65 | 1022.7 |
| 20260906183001 | 78 | 42 | 7.0 | 20.0 | 0.00 | 0.00 | 0.00 | 65 | 1022.7 |
| 20260906182844 | 78 | 42 | 7.0 | 20.0 | 0.00 | 0.00 | 0.00 | 65 | 1022.7 |
| 20260906182327 | 79 | 53 | 10.0 | 20.0 | 0.00 | 0.00 | 0.00 | 65 | 1022.7 |
| 20260906181830 | 79 | 55 | 8.0 | 20.0 | 0.00 | 0.00 | 0.00 | 65 | 1022.7 |
| 20260906181325 | 79 | 360 | 9.0 | 19.0 | 0.00 | 0.00 | 0.00 | 64 | 1022.6 |
| 20260906180849 | 80 | 46 | 9.0 | 19.0 | 0.00 | 0.00 | 0.00 | 63 | 1022.6 |
| 20260906180324 | 80 | 39 | 7.0 | 19.0 | 0.00 | 0.00 | 0.00 | 62 | 1022.6 |
| 20260906175826 | 81 | 50 | 10.0 | 19.0 | 0.00 | 0.00 | 0.00 | 61 | 1022.7 |
| 20260906175324 | 81 | 360 | 8.0 | 18.0 | 0.00 | 0.00 | 0.00 | 60 | 1022.5 |
| 20260906174828 | 82 | 36 | 10.0 | 18.0 | 0.00 | 0.00 | 0.00 | 58 | 1022.6 |
| 20260906174320 | 82 | 69 | 10.0 | 18.0 | 0.00 | 0.00 | 0.00 | 56 | 1022.6 |
| 20260906173839 | 83 | 329 | 10.0 | 18.0 | 0.00 | 0.00 | 0.00 | 55 | 1022.5 |
| 20260906172829 | 83 | 60 | 10.0 | 18.0 | 0.00 | 0.00 | 0.00 | 54 | 1022.4 |
| 20260906171341 | 84 | 329 | 8.0 | 19.0 | 0.00 | 0.00 | 0.00 | 54 | 1022.4 |
| 20260906170816 | 84 | 360 | 11.0 | 19.0 | 0.00 | 0.00 | 0.00 | 52 | 1022.3 |
| 20260906170341 | 84 | 337 | 7.0 | 18.0 | 0.00 | 0.00 | 0.00 | 52 | 1022.4 |
| 20260906165827 | 84 | 360 | 10.0 | 18.0 | 0.00 | 0.00 | 0.00 | 52 | 1022.4 |
| 20260906165320 | 85 | 42 | 10.0 | 18.0 | 0.00 | 0.00 | 0.00 | 52 | 1022.5 |
| 20260906164816 | 85 | 44 | 8.0 | 19.0 | 0.00 | 0.00 | 0.00 | 52 | 1022.4 |
| 20260906164314 | 85 | 80 | 9.0 | 19.0 | 0.00 | 0.00 | 0.00 | 53 | 1022.4 |
| 20260906163831 | 85 | 348 | 8.0 | 18.0 | 0.00 | 0.00 | 0.00 | 52 | 1022.5 |
| 20260906163334 | 86 | 306 | 8.0 | 17.0 | 0.00 | 0.00 | 0.00 | 50 | 1022.4 |
| 20260906162825 | 86 | 320 | 7.0 | 19.0 | 0.00 | 0.00 | 0.00 | 48 | 1022.5 |
| 20260906160837 | 86 | 42 | 9.0 | 19.0 | 0.00 | 0.00 | 0.00 | 48 | 1022.3 |
| 20260906160440 | 87 | 45 | 11.0 | 17.0 | 0.00 | 0.00 | 0.00 | 47 | 1022.5 |
| 20260906160351 | 87 | 45 | 11.0 | 17.0 | 0.00 | 0.00 | 0.00 | 47 | 1022.5 |
| 20260906154442 | 86 | 360 | 10.0 | 15.0 | 0.00 | 0.00 | 0.00 | 50 | 1022.5 |
| 20260906153825 | 87 | 70 | 8.0 | 15.0 | 0.00 | 0.00 | 0.00 | 52 | 1022.4 |
| 20260906153321 | 86 | 360 | 7.0 | 16.0 | 0.00 | 0.00 | 0.00 | 51 | 1022.4 |
| 20260906152842 | 87 | 360 | 7.0 | 16.0 | 0.00 | 0.00 | 0.00 | 53 | 1022.4 |
| 20260906152321 | 86 | 348 | 5.0 | 13.0 | 0.00 | 0.00 | 0.00 | 53 | 1022.5 |
| 20260906151900 | 86 | 65 | 6.0 | 18.0 | 0.00 | 0.00 | 0.00 | 54 | 1022.4 |
| 20260906151323 | 86 | 348 | 11.0 | 18.0 | 0.00 | 0.00 | 0.00 | 54 | 1022.5 |
| 20260906150815 | 86 | 65 | 8.0 | 16.0 | 0.00 | 0.00 | 0.00 | 54 | 1022.5 |
| 20260906150329 | 86 | 347 | 8.0 | 16.0 | 0.00 | 0.00 | 0.00 | 55 | 1022.5 |
| 20260906145816 | 85 | 50 | 6.0 | 18.0 | 0.00 | 0.00 | 0.00 | 56 | 1022.6 |
| 20260906145327 | 85 | 360 | 10.0 | 18.0 | 0.00 | 0.00 | 0.00 | 55 | 1022.6 |
| 20260906144814 | 85 | 360 | 9.0 | 15.0 | 0.00 | 0.00 | 0.00 | 55 | 1022.7 |
| 20260906144325 | 85 | 360 | 9.0 | 14.0 | 0.00 | 0.00 | 0.00 | 55 | 1022.8 |
| 20260906143837 | 85 | 42 | 8.0 | 17.0 | 0.00 | 0.00 | 0.00 | 56 | 1022.7 |
| 20260906143317 | 85 | 355 | 8.0 | 16.0 | 0.00 | 0.00 | 0.00 | 56 | 1022.8 |
| 20260906142814 | 85 | 360 | 4.0 | 17.0 | 0.00 | 0.00 | 0.00 | 56 | 1022.9 |
| 20260906142339 | 85 | 59 | 9.0 | 17.0 | 0.00 | 0.00 | 0.00 | 56 | 1022.8 |
| 20260906141813 | 85 | 32 | 7.0 | 18.0 | 0.00 | 0.00 | 0.00 | 56 | 1022.9 |
| 20260906141337 | 85 | 346 | 10.0 | 18.0 | 0.00 | 0.00 | 0.00 | 55 | 1022.9 |
| 20260906140828 | 85 | 338 | 9.0 | 16.0 | 0.00 | 0.00 | 0.00 | 55 | 1022.9 |
| 20260906140330 | 85 | 80 | 9.0 | 16.0 | 0.00 | 0.00 | 0.00 | 56 | 1022.9 |
| 20260906135834 | 85 | 39 | 10.0 | 17.0 | 0.00 | 0.00 | 0.00 | 57 | 1022.9 |
| 20260906135328 | 85 | 59 | 8.0 | 17.0 | 0.00 | 0.00 | 0.00 | 57 | 1022.9 |
| 20260906134832 | 86 | 42 | 9.0 | 14.0 | 0.00 | 0.00 | 0.00 | 55 | 1022.9 |
| 20260906134328 | 85 | 66 | 8.0 | 14.0 | 0.00 | 0.00 | 0.00 | 56 | 1023.0 |
| 20260906133823 | 85 | 61 | 6.0 | 15.0 | 0.00 | 0.00 | 0.00 | 56 | 1023.0 |
| 20260906133344 | 85 | 71 | 6.0 | 15.0 | 0.00 | 0.00 | 0.00 | 57 | 1023.0 |
| 20260906132316 | 85 | 72 | 5.0 | 14.0 | 0.00 | 0.00 | 0.00 | 57 | 1022.9 |
| 20260906131835 | 85 | 42 | 6.0 | 14.0 | 0.00 | 0.00 | 0.00 | 57 | 1023.0 |
| 20260906131331 | 85 | 79 | 4.0 | 12.0 | 0.00 | 0.00 | 0.00 | 58 | 1023.0 |
| 20260906130834 | 85 | 96 | 5.0 | 12.0 | 0.00 | 0.00 | 0.00 | 57 | 1023.0 |
| 20260906130351 | 85 | 96 | 5.0 | 12.0 | 0.00 | 0.00 | 0.00 | 57 | 1023.1 |
| 20260906125844 | 85 | 360 | 5.0 | 13.0 | 0.00 | 0.00 | 0.00 | 58 | 1023.0 |
| 20260906125323 | 84 | 68 | 6.0 | 12.0 | 0.00 | 0.00 | 0.00 | 58 | 1022.9 |
| 20260906124854 | 84 | 38 | 6.0 | 13.0 | 0.00 | 0.00 | 0.00 | 59 | 1022.9 |
| 20260906124317 | 84 | 42 | 6.0 | 13.0 | 0.00 | 0.00 | 0.00 | 60 | 1023.0 |
| 20260906123816 | 83 | 42 | 7.0 | 13.0 | 0.00 | 0.00 | 0.00 | 61 | 1023.0 |
| 20260906123338 | 82 | 74 | 4.0 | 12.0 | 0.00 | 0.00 | 0.00 | 63 | 1023.0 |
| 20260906122813 | 81 | 229 | 2.0 | 5.0 | 0.00 | 0.00 | 0.00 | 64 | 1023.1 |
| 20260906122334 | 81 | 240 | 2.0 | 9.0 | 0.00 | 0.00 | 0.00 | 64 | 1023.1 |
| 20260906121835 | 81 | 360 | 4.0 | 9.0 | 0.00 | 0.00 | 0.00 | 65 | 1023.1 |
| 20260906121329 | 80 | 245 | 3.0 | 5.0 | 0.00 | 0.00 | 0.00 | 64 | 1023.2 |
| 20260906120832 | 81 | 238 | 2.0 | 9.0 | 0.00 | 0.00 | 0.00 | 64 | 1023.1 |
| 20260906120329 | 82 | 261 | 2.0 | 9.0 | 0.00 | 0.00 | 0.00 | 62 | 1023.1 |
| 20260906115829 | 82 | 297 | 3.0 | 9.0 | 0.00 | 0.00 | 0.00 | 62 | 1023.2 |
| 20260906115337 | 83 | 360 | 3.0 | 9.0 | 0.00 | 0.00 | 0.00 | 61 | 1023.3 |
| 20260906114846 | 82 | 49 | 2.0 | 8.0 | 0.00 | 0.00 | 0.00 | 61 | 1023.3 |
| 20260906114329 | 82 | 260 | 2.0 | 11.0 | 0.00 | 0.00 | 0.00 | 63 | 1023.4 |
| 20260906113825 | 82 | 320 | 4.0 | 12.0 | 0.00 | 0.00 | 0.00 | 61 | 1023.4 |
| 20260906111840 | 81 | 38 | 7.0 | 12.0 | 0.00 | 0.00 | 0.00 | 63 | 1023.4 |
| 20260906110845 | 81 | 360 | 6.0 | 13.0 | 0.00 | 0.00 | 0.00 | 62 | 1023.4 |
| 20260906105859 | 81 | 57 | 5.0 | 10.0 | 0.00 | 0.00 | 0.00 | 64 | 1023.4 |
| 20260906105330 | 81 | 331 | 4.0 | 9.0 | 0.00 | 0.00 | 0.00 | 65 | 1023.5 |
| 20260906104841 | 80 | 105 | 3.0 | 10.0 | 0.00 | 0.00 | 0.00 | 66 | 1023.4 |
| 20260906104335 | 80 | 350 | 3.0 | 11.0 | 0.00 | 0.00 | 0.00 | 67 | 1023.5 |
| 20260906103827 | 80 | 74 | 5.0 | 10.0 | 0.00 | 0.00 | 0.00 | 68 | 1023.5 |
| 20260906103324 | 79 | 360 | 6.0 | 12.0 | 0.00 | 0.00 | 0.00 | 69 | 1023.4 |
| 20260906102325 | 79 | 45 | 4.0 | 12.0 | 0.00 | 0.00 | 0.00 | 71 | 1023.6 |
| 20260906101815 | 78 | 105 | 4.0 | 13.0 | 0.00 | 0.00 | 0.00 | 73 | 1023.5 |
| 20260906101315 | 78 | 59 | 5.0 | 12.0 | 0.00 | 0.00 | 0.00 | 73 | 1023.5 |
| 20260906100854 | 77 | 323 | 6.0 | 12.0 | 0.00 | 0.00 | 0.00 | 74 | 1023.5 |
| 20260906100327 | 76 | 360 | 1.0 | 4.0 | 0.00 | 0.00 | 0.00 | 75 | 1023.5 |
| 20260906095830 | 75 | 261 | 0.0 | 4.0 | 0.00 | 0.00 | 0.00 | 75 | 1023.5 |
| 20260906095341 | 74 | 261 | 2.0 | 4.0 | 0.00 | 0.00 | 0.00 | 76 | 1023.4 |
| 20260906092828 | 72 | 254 | 3.0 | 4.0 | 0.00 | 0.00 | 0.00 | 80 | 1023.5 |
| 20260906092327 | 72 | 257 | 2.0 | 4.0 | 0.00 | 0.00 | 0.00 | 81 | 1023.2 |
| 20260906091836 | 71 | 259 | 2.0 | 4.0 | 0.00 | 0.00 | 0.00 | 81 | 1023.1 |
| 20260906091318 | 71 | 252 | 2.0 | 4.0 | 0.00 | 0.00 | 0.00 | 81 | 1023.2 |
| 20260906090822 | 71 | 244 | 1.0 | 3.0 | 0.00 | 0.00 | 0.00 | 81 | 1023.0 |
| 20260906085820 | 71 | 244 | 2.0 | 4.0 | 0.00 | 0.00 | 0.00 | 80 | 1023.0 |
| 20260906085325 | 71 | 240 | 2.0 | 4.0 | 0.00 | 0.00 | 0.00 | 80 | 1022.9 |
| 20260906084830 | 71 | 265 | 2.0 | 4.0 | 0.00 | 0.00 | 0.00 | 79 | 1022.9 |
| 20260906084324 | 72 | 270 | 3.0 | 4.0 | 0.00 | 0.00 | 0.00 | 78 | 1023.0 |
| 20260906083838 | 72 | 279 | 1.0 | 3.0 | 0.00 | 0.00 | 0.00 | 78 | 1022.9 |
| 20260906083313 | 73 | 290 | 2.0 | 3.0 | 0.00 | 0.00 | 0.00 | 77 | 1022.9 |
| 20260906082901 | 73 | 360 | 1.0 | 3.0 | 0.00 | 0.00 | 0.00 | 76 | 1022.9 |
| 20260906082325 | 75 | 268 | 0.0 | 0.0 | 0.00 | 0.00 | 0.00 | 76 | 1022.9 |
| 20260906081820 | 75 | 282 | 0.0 | 0.0 | 0.00 | 0.00 | 0.00 | 78 | 1022.9 |
| 20260906081319 | 74 | 282 | 0.0 | 0.0 | 0.00 | 0.00 | 0.00 | 79 | 1022.9 |
| 20260906080838 | 74 | 282 | 0.0 | 0.0 | 0.00 | 0.00 | 0.00 | 80 | 1022.9 |
| 20260906080329 | 73 | 282 | 0.0 | 0.0 | 0.00 | 0.00 | 0.00 | 80 | 1023.0 |
| 20260906075831 | 72 | 282 | 0.0 | 0.0 | 0.00 | 0.00 | 0.00 | 80 | 1022.8 |
| 20260906075327 | 72 | 282 | 0.0 | 0.0 | 0.00 | 0.00 | 0.00 | 80 | 1022.8 |
| 20260906074826 | 72 | 284 | 0.0 | 0.0 | 0.00 | 0.00 | 0.00 | 80 | 1022.8 |
| 20260906063328 | 69 | 105 | 2.0 | 8.0 | 0.00 | 0.00 | 0.00 | 87 | 1022.2 |
| 20260906062336 | 69 | 40 | 4.0 | 8.0 | 0.00 | 0.00 | 0.00 | 87 | 1022.2 |
| 20260906060835 | 69 | 51 | 4.0 | 9.0 | 0.00 | 0.00 | 0.00 | 87 | 1022.0 |
| 20260906052411 | 69 | 76 | 4.0 | 11.0 | 0.00 | 0.00 | 0.00 | 87 | 1021.7 |
| 20260906044848 | 69 | 360 | 6.0 | 10.0 | 0.00 | 0.00 | 0.00 | 85 | 1021.6 |
| 20260906044331 | 69 | 360 | 5.0 | 10.0 | 0.00 | 0.00 | 0.00 | 85 | 1021.6 |
| 20260906043827 | 69 | 78 | 4.0 | 8.0 | 0.00 | 0.00 | 0.00 | 85 | 1021.6 |
| 20260906043526 | 69 | 95 | 3.0 | 9.0 | 0.00 | 0.00 | 0.00 | 85 | 1021.6 |
| 20260906043401 | 69 | 95 | 3.0 | 9.0 | 0.00 | 0.00 | 0.00 | 85 | 1021.6 |
| 20260906023845 | 70 | 194 | 0.0 | 3.0 | 0.00 | 0.00 | 0.00 | 82 | 1021.2 |
| 20260906023321 | 70 | 194 | 1.0 | 4.0 | 0.00 | 0.00 | 0.00 | 83 | 1021.2 |
| 20260906022823 | 70 | 194 | 2.0 | 4.0 | 0.00 | 0.00 | 0.00 | 83 | 1021.3 |
| 20260906022317 | 70 | 190 | 1.0 | 3.0 | 0.00 | 0.00 | 0.00 | 82 | 1021.3 |
| 20260906021819 | 70 | 244 | 0.0 | 3.0 | 0.00 | 0.00 | 0.00 | 82 | 1021.4 |
| 20260906021315 | 71 | 244 | 0.0 | 3.0 | 0.00 | 0.00 | 0.00 | 82 | 1021.5 |
| 20260906020839 | 71 | 272 | 0.0 | 2.0 | 0.00 | 0.00 | 0.00 | 82 | 1021.5 |
| 20260906014912 | 71 | 272 | 0.0 | 1.0 | 0.00 | 0.00 | 0.00 | 81 | 1021.5 |
| 20260906014323 | 71 | 272 | 0.0 | 1.0 | 0.00 | 0.00 | 0.00 | 81 | 1021.6 |
| 20260906013834 | 71 | 272 | 0.0 | 1.0 | 0.00 | 0.00 | 0.00 | 81 | 1021.6 |
| 20260906013320 | 71 | 272 | 0.0 | 3.0 | 0.00 | 0.00 | 0.00 | 81 | 1021.6 |
| 20260906012335 | 71 | 360 | 1.0 | 3.0 | 0.00 | 0.00 | 0.00 | 81 | 1021.7 |
| 20260906001904 | 70 | 273 | 0.0 | 2.0 | 0.00 | 0.00 | 0.00 | 86 | 1022.2 |
| 20260906000929 | 70 | 275 | 1.0 | 3.0 | 0.00 | 0.00 | 0.00 | 86 | 1022.3 |